TimeEDT,TemperatureF,Dew PointF,Humidity,Sea Level PressureIn,VisibilityMPH,Wind Direction,Wind SpeedMPH,Gust SpeedMPH,PrecipitationIn,Events,Conditions,WindDirDegrees,DateUTC
12:53 AM,48.9,43.0,80,30.03,10.0,ENE,6.9,-,N/A,,Clear,70,2013-09-23 04:53:00
1:53 AM,48.0,43.0,83,30.04,10.0,ENE,6.9,-,N/A,,Clear,70,2013-09-23 05:53:00
2:53 AM,48.0,43.0,83,30.05,10.0,ENE,6.9,-,N/A,,Clear,70,2013-09-23 06:53:00
3:53 AM,46.9,43.0,86,30.05,10.0,ENE,5.8,-,N/A,,Clear,70,2013-09-23 07:53:00
4:53 AM,46.0,43.0,89,30.05,10.0,ENE,4.6,-,N/A,,Clear,60,2013-09-23 08:53:00
5:53 AM,46.0,43.0,89,30.06,10.0,ENE,6.9,-,N/A,,Clear,60,2013-09-23 09:53:00
6:53 AM,45.0,42.1,90,30.08,10.0,ENE,6.9,-,N/A,,Clear,60,2013-09-23 10:53:00
7:53 AM,46.9,43.0,86,30.10,10.0,East,5.8,-,N/A,,Clear,80,2013-09-23 11:53:00
8:53 AM,50.0,44.1,80,30.12,10.0,East,6.9,-,N/A,,Clear,80,2013-09-23 12:53:00
9:53 AM,54.0,45.0,72,30.13,10.0,East,9.2,-,N/A,,Clear,90,2013-09-23 13:53:00
10:53 AM,57.9,46.0,65,30.13,10.0,ESE,9.2,-,N/A,,Clear,120,2013-09-23 14:53:00
11:53 AM,61.0,45.0,56,30.13,10.0,SE,11.5,-,N/A,,Partly Cloudy,130,2013-09-23 15:53:00
12:53 PM,62.1,45.0,53,30.12,10.0,East,6.9,-,N/A,,Clear,90,2013-09-23 16:53:00
1:53 PM,64.9,45.0,48,30.11,10.0,Variable,6.9,16.1,N/A,,Clear,0,2013-09-23 17:53:00
2:53 PM,66.0,46.0,48,30.09,10.0,Variable,5.8,-,N/A,,Clear,0,2013-09-23 18:53:00
3:53 PM,66.9,45.0,45,30.08,10.0,Calm,Calm,-,N/A,,Clear,0,2013-09-23 19:53:00
4:53 PM,68.0,45.0,43,30.06,10.0,East,4.6,-,N/A,,Clear,90,2013-09-23 20:53:00
5:53 PM,66.9,45.0,45,30.06,10.0,East,5.8,-,N/A,,Clear,80,2013-09-23 21:53:00
6:53 PM,64.9,44.1,47,30.06,10.0,East,3.5,-,N/A,,Clear,90,2013-09-23 22:53:00
7:53 PM,61.0,44.1,54,30.06,10.0,East,4.6,-,N/A,,Clear,80,2013-09-23 23:53:00
8:53 PM,57.9,44.1,60,30.08,10.0,East,5.8,-,N/A,,Clear,90,2013-09-24 00:53:00
9:53 PM,55.0,45.0,69,30.09,10.0,East,6.9,-,N/A,,Clear,90,2013-09-24 01:53:00
10:53 PM,53.1,44.1,71,30.10,10.0,East,6.9,-,N/A,,Clear,90,2013-09-24 02:53:00
11:53 PM,52.0,44.1,74,30.09,10.0,East,6.9,-,N/A,,Clear,90,2013-09-24 03:53:00